Location: Binningen
(47.7924°N, 8.7261°E)
Time: 22:49:28
(UTC+00:00)

Cosmos 2278 Rocket - Pass Details

Date: 17 May 2021
Orbit: 841 x 845 km, 71.0° (Epoch: 24 June)

Event Time Altitude Azimuth Distance (km) Brightness Sun altitude
Rises 20:34:08 0° 230° (SW) 3,387 5.4 -12.9°
Reaches altitude 10° 20:36:43 10° 238° (WSW) 2,456 4.7 -13.2°
Maximum altitude 20:41:59 39° 307° (NW) 1,237 3.7 -13.8°
Drops below altitude 10° 20:47:17 10° 16° (NNE) 2,470 5.1 -14.3°
Sets 20:49:55 0° 24° (NNE) 3,409 5.8 -14.6°
